Weather History for Evergreen, AL

Change the Weather History Date:

Thursday, June 27, 2013

  Actual Average (KPRN) Record (KPRN)
Temperature  
Mean Temperature 83 °F -  
Max Temperature 93 °F 90 °F 106 °F (1954)
Min Temperature 73 °F 67 °F 59 °F (1981)
Cooling Degree Days 18    
Growing Degree Days 33 (Base 50)    
Moisture  
Dew Point 73 °F    
Average Humidity 72    
Maximum Humidity 94    
Minimum Humidity 49    
Precipitation  
Precipitation 0.00 in - - ()
Sea Level Pressure  
Sea Level Pressure 29.98 in    
Wind  
Wind Speed 2 mph (WSW)    
Max Wind Speed 8 mph    
Max Gust Speed -    
Visibility 10 miles    
Events      
Averages and records for this station are not official NWS values.
T = Trace of Precipitation, MM = Missing Value Source: NWS Daily Summary

Daily Weather History Graph

Daily Weather History Graph

Search for Another Location

Airport:

Trip Planner

Search our weather history database for the weather conditions in past years. The results will help you decide how hot, cold, wet, or windy it might be!

Date:

Astronomy

Jun. 27, 2013 Rise Set
Actual Time 5:45 AM CDT 7:56 PM CDT
Civil Twilight 5:17 AM CDT 8:24 PM CDT
Nautical Twilight 4:43 AM CDT 8:58 PM CDT
Astronomical Twilight 4:06 AM CDT 9:35 PM CDT
Moon 11:15 PM CDT (6/27) 10:27 AM CDT (6/27)
Length of Visible Light 15h 06m
Length of Day
14h 10m
Waning Gibbous, 76% of the Moon is Illuminated
Jun 27
Waning Gibbous
Jun 29
Last Quarter
Jul 8
New
Jul 15
First Quarter
Jul 22
Full

Hourly Weather History & Observations

Time (CDT) Temp. Heat Index Dew Point Humidity Pressure Visibility Wind Dir Wind Speed Gust Speed Precip Events Conditions
12:53 AM 77.0 °F - 73.0 °F 88% 30.02 in 10.0 mi Calm Calm - N/A   Clear
1:53 AM 75.9 °F - 73.0 °F 91% 30.01 in 10.0 mi Calm Calm - N/A   Clear
2:53 AM 75.0 °F - 73.0 °F 94% 30.01 in 10.0 mi Calm Calm - N/A   Clear
3:53 AM 73.9 °F - 72.0 °F 93% 30.01 in 9.0 mi Calm Calm - N/A   Clear
4:53 AM 73.9 °F - 71.1 °F 91% 30.02 in 9.0 mi Calm Calm - N/A   Clear
5:53 AM 73.9 °F - 71.1 °F 91% 30.02 in 9.0 mi Calm Calm - N/A   Clear
6:53 AM 75.9 °F - 73.9 °F 94% 30.02 in 10.0 mi Calm Calm - N/A   Clear
7:53 AM 81.0 °F 87.3 °F 75.9 °F 85% 30.02 in 10.0 mi WSW 3.5 mph - N/A   Clear
8:53 AM 84.0 °F 92.6 °F 75.9 °F 76% 30.02 in 10.0 mi West 4.6 mph - N/A   Clear
9:53 AM 86.0 °F 95.1 °F 75.0 °F 70% 30.03 in 10.0 mi Variable 5.8 mph - N/A   Clear
10:53 AM 87.1 °F 96.3 °F 75.0 °F 67% 30.02 in 10.0 mi Variable 3.5 mph - N/A   Clear
11:53 AM 88.0 °F 97.5 °F 75.0 °F 65% 30.01 in 10.0 mi Variable 4.6 mph - N/A   Partly Cloudy
12:53 PM 91.0 °F 99.3 °F 73.0 °F 55% 29.99 in 10.0 mi West 5.8 mph - N/A   Scattered Clouds
1:53 PM 91.9 °F 100.7 °F 73.0 °F 54% 29.97 in 10.0 mi Variable 6.9 mph - N/A   Partly Cloudy
2:53 PM 93.0 °F 100.7 °F 72.0 °F 50% 29.95 in 10.0 mi West 5.8 mph - N/A   Partly Cloudy
3:53 PM 93.0 °F 100.7 °F 72.0 °F 50% 29.93 in 10.0 mi WSW 8.1 mph - N/A   Clear
4:53 PM 93.0 °F 100.7 °F 72.0 °F 50% 29.92 in 10.0 mi WSW 8.1 mph - N/A   Partly Cloudy
5:53 PM 93.0 °F 100.1 °F 71.1 °F 49% 29.91 in 10.0 mi Variable 4.6 mph - N/A   Clear
6:53 PM 91.0 °F 98.2 °F 72.0 °F 53% 29.91 in 10.0 mi West 4.6 mph - N/A   Clear
7:53 PM 87.1 °F 94.5 °F 73.0 °F 63% 29.91 in 10.0 mi WSW 3.5 mph - N/A   Clear
8:53 PM 82.9 °F 89.4 °F 73.9 °F 74% 29.93 in 10.0 mi Calm Calm - N/A   Clear
9:53 PM 82.9 °F 88.8 °F 73.0 °F 72% 29.93 in 10.0 mi WSW 3.5 mph - N/A   Clear
10:53 PM 82.0 °F 86.7 °F 72.0 °F 71% 29.94 in 10.0 mi SW 3.5 mph - N/A   Clear
11:53 PM 81.0 °F 85.8 °F 73.0 °F 77% 29.92 in 10.0 mi WSW 5.8 mph - N/A   Clear